User: anonymous   Login
Location: Unspecified
(0.0000°N, 0.0000°E)
Time: 00:56:54
(UTC+00:00)
Language:

STARLINK-35028 - Orbit

View from above orbital plane
View from above orbital plane
View from above satellite
View from above satellite

Ground track
Ground track

The orbit is defined by the following mean orbital elements,

1 65381U          26145.57920833 +.00000000 +00000-0 +19558-3 0 00002
2 65381  97.4524  17.0006 0002331 104.6156 255.5330 15.05654231    07
Epoch (UTC): 25 May 2026 13:54:03
Eccentricity: 0.0002331
inclination: 97.4524°
perigee height: 548 km
apogee height: 551 km
right ascension of ascending node: 17.0006°
argument of perigee: 104.6156°
revolutions per day: 15.05654231
mean anomaly at epoch: 255.5330°

The dashed part of the orbit path shows where the satellite is in the earth's shadow,  

DLR